• In Hungary
  • List of Countries
  • For 7 days
  • Water Temperature
  • Satellite Maps
  • Weather Map
  • News
  • Weather Widgets
  • user-avatar
    Login

    Hourly Weather Ancinoriha

    Today, 24 October, Wednesday

    Time Temperature Precipitation Wind Pressure Humidity
    00:00 +2°C° 0.1 mm 3 mps 721 mmHg 86%
    01:00 +2°C° 0.1 mm 3 mps 721 mmHg 86%
    02:00 +2°C° 0.1 mm 3 mps 720 mmHg 86%
    03:00 +2°C° 0.3 mm 3 mps 719 mmHg 86%
    04:00 +2°C° 0.3 mm 3 mps 718 mmHg 86%
    05:00 +2°C° 0.3 mm 3 mps 718 mmHg 86%
    06:00 +1°C° 0.3 mm 4 mps 717 mmHg 86%
    07:00 +1°C° 0.3 mm 4 mps 717 mmHg 86%
    08:00 +1°C° 0.3 mm 4 mps 717 mmHg 86%
    09:00 +3°C° 0.3 mm 3 mps 717 mmHg 85%
    10:00 +3°C° 0.3 mm 3 mps 717 mmHg 84%
    11:00 +3°C° 0.3 mm 3 mps 717 mmHg 83%
    12:00 +4°C° 0.3 mm 3 mps 717 mmHg 83%
    13:00 +4°C° 0.3 mm 3 mps 717 mmHg 84%
    14:00 +5°C° 0.3 mm 2 mps 717 mmHg 84%
    15:00 +5°C° 0.2 mm 2 mps 717 mmHg 86%
    16:00 +4°C° 0.2 mm 2 mps 717 mmHg 88%
    17:00 +4°C° 0.2 mm 2 mps 717 mmHg 90%
    18:00 +4°C° 0.1 mm 2 mps 717 mmHg 91%
    19:00 +4°C° 0.1 mm 2 mps 718 mmHg 92%
    20:00 +4°C° 0.1 mm 2 mps 718 mmHg 92%
    21:00 +3°C° 0.1 mm 3 mps 718 mmHg 92%
    22:00 +2°C° 0.1 mm 3 mps 718 mmHg 92%
    23:00 +2°C° 0.1 mm 3 mps 718 mmHg 92%

    Tomorrow, 25 October, Thursday

    Time Temperature Precipitation Wind Pressure Humidity
    00:00 +2°C° 0.1 mm 3 mps 718 mmHg 91%
    01:00 +2°C° 0.1 mm 3 mps 719 mmHg 90%
    02:00 +1°C° 0.1 mm 4 mps 719 mmHg 90%
    03:00 +1°C° 0.1 mm 4 mps 719 mmHg 89%
    04:00 +1°C° 0.1 mm 4 mps 719 mmHg 88%
    05:00 +1°C° 0.1 mm 4 mps 719 mmHg 87%
    06:00 +1°C° 0.1 mm 4 mps 719 mmHg 86%
    07:00 +1°C° 0.1 mm 4 mps 720 mmHg 85%
    08:00 0°C° 0.1 mm 4 mps 720 mmHg 84%
    09:00 0°C° 0.1 mm 4 mps 720 mmHg 82%
    10:00 +1°C° 0.1 mm 4 mps 720 mmHg 81%
    11:00 +1°C° 0.1 mm 4 mps 721 mmHg 80%
    12:00 0°C° 0 mm 4 mps 721 mmHg 79%
    13:00 0°C° 0 mm 4 mps 721 mmHg 78%
    14:00 0°C° 0 mm 4 mps 721 mmHg 77%
    15:00 0°C° 0 mm 4 mps 721 mmHg 78%
    16:00 0°C° 0 mm 4 mps 721 mmHg 78%
    17:00 +1°C° 0 mm 3 mps 721 mmHg 78%
    18:00 +1°C° 0 mm 3 mps 721 mmHg 79%
    19:00 0°C° 0 mm 3 mps 722 mmHg 80%
    20:00 0°C° 0 mm 3 mps 722 mmHg 80%
    21:00 +1°C° 0 mm 2 mps 722 mmHg 82%
    22:00 +1°C° 0 mm 2 mps 722 mmHg 84%
    23:00 +1°C° 0 mm 2 mps 722 mmHg 86%

    Day after tomorrow, 26 October, Friday

    Time Temperature Precipitation Wind Pressure Humidity
    00:00 +1°C° 0 mm 2 mps 722 mmHg 89%
    01:00 +1°C° 0 mm 2 mps 722 mmHg 91%
    02:00 -1°C° 0 mm 2 mps 722 mmHg 94%
    03:00 -1°C° 0 mm 2 mps 722 mmHg 94%
    04:00 -1°C° 0 mm 2 mps 722 mmHg 95%
    05:00 -2°C° 0 mm 2 mps 723 mmHg 95%
    06:00 -1°C° 0.2 mm 3 mps 723 mmHg 94%
    07:00 -1°C° 0.2 mm 3 mps 723 mmHg 92%
    08:00 0°C° 0.2 mm 3 mps 723 mmHg 91%
    09:00 0°C° 0.2 mm 3 mps 724 mmHg 88%
    10:00 +1°C° 0.2 mm 3 mps 724 mmHg 85%
    11:00 +2°C° 0.2 mm 3 mps 724 mmHg 82%
    12:00 +2°C° 0.1 mm 3 mps 724 mmHg 81%
    13:00 +1°C° 0.1 mm 4 mps 725 mmHg 79%
    14:00 +3°C° 0.1 mm 4 mps 725 mmHg 78%
    15:00 +1°C° 0 mm 4 mps 725 mmHg 79%
    16:00 +2°C° 0 mm 3 mps 725 mmHg 81%
    17:00 +1°C° 0 mm 3 mps 726 mmHg 82%
    18:00 +1°C° 0.1 mm 3 mps 726 mmHg 84%
    19:00 +1°C° 0.1 mm 3 mps 726 mmHg 85%
    20:00 +1°C° 0.1 mm 3 mps 727 mmHg 86%
    21:00 0°C° 0 mm 3 mps 727 mmHg 88%
    22:00 0°C° 0 mm 3 mps 727 mmHg 90%
    23:00 -1°C° 0 mm 3 mps 727 mmHg 92%

    27 October, Saturday

    Time Temperature Precipitation Wind Pressure Humidity
    00:00 -1°C° 0 mm 3 mps 727 mmHg 93%
    01:00 -1°C° 0 mm 3 mps 727 mmHg 94%
    02:00 -1°C° 0 mm 3 mps 727 mmHg 94%
    03:00 -1°C° 0.1 mm 3 mps 727 mmHg 93%
    04:00 -1°C° 0.1 mm 3 mps 726 mmHg 93%
    05:00 0°C° 0.1 mm 3 mps 726 mmHg 92%
    06:00 -1°C° 0.8 mm 4 mps 725 mmHg 91%
    07:00 0°C° 0.8 mm 5 mps 724 mmHg 90%
    08:00 +1°C° 0.8 mm 6 mps 723 mmHg 88%
    09:00 +1°C° 1.1 mm 5 mps 722 mmHg 89%
    10:00 +2°C° 1.1 mm 5 mps 721 mmHg 89%
    11:00 +3°C° 1.1 mm 5 mps 720 mmHg 89%
    12:00 +3°C° 0.6 mm 5 mps 719 mmHg 88%
    13:00 +3°C° 0.6 mm 5 mps 719 mmHg 87%
    14:00 +5°C° 0.6 mm 5 mps 718 mmHg 86%
    15:00 +3°C° 0.2 mm 5 mps 718 mmHg 85%
    16:00 +3°C° 0.2 mm 5 mps 719 mmHg 84%
    17:00 +2°C° 0.2 mm 5 mps 719 mmHg 84%
    18:00 +2°C° 0.4 mm 6 mps 720 mmHg 84%
    19:00 0°C° 0.4 mm 7 mps 721 mmHg 84%
    20:00 0°C° 0.4 mm 7 mps 722 mmHg 84%
    21:00 -1°C° 0.1 mm 7 mps 723 mmHg 83%
    22:00 -1°C° 0.1 mm 7 mps 725 mmHg 82%
    23:00 -1°C° 0.1 mm 7 mps 726 mmHg 80%

    28 October, Sunday

    Time Temperature Precipitation Wind Pressure Humidity
    00:00 -2°C° 0 mm 7 mps 728 mmHg 80%
    01:00 -2°C° 0 mm 6 mps 729 mmHg 81%
    02:00 -2°C° 0 mm 6 mps 731 mmHg 81%
    03:00 -1°C° 0 mm 5 mps 732 mmHg 81%
    04:00 -1°C° 0 mm 5 mps 733 mmHg 82%
    05:00 -1°C° 0 mm 4 mps 734 mmHg 82%
    06:00 -1°C° 0 mm 4 mps 735 mmHg 83%
    07:00 -1°C° 0 mm 4 mps 736 mmHg 83%
    08:00 -1°C° 0 mm 4 mps 737 mmHg 84%
    09:00 -1°C° 0 mm 4 mps 737 mmHg 81%
    10:00 -1°C° 0 mm 4 mps 738 mmHg 79%
    11:00 -1°C° 0 mm 4 mps 739 mmHg 76%
    12:00 -1°C° 0 mm 4 mps 740 mmHg 75%
    13:00 -1°C° 0 mm 4 mps 740 mmHg 74%
    14:00 0°C° 0 mm 4 mps 741 mmHg 72%
    15:00 0°C° 0 mm 3 mps 742 mmHg 76%
    16:00 -1°C° 0 mm 3 mps 742 mmHg 80%
    17:00 -2°C° 0 mm 2 mps 743 mmHg 84%
    18:00 -2°C° 0 mm 2 mps 743 mmHg 85%
    19:00 -2°C° 0 mm 2 mps 744 mmHg 87%
    20:00 -3°C° 0 mm 2 mps 744 mmHg 89%
    21:00 -3°C° 0 mm 2 mps 745 mmHg 90%
    22:00 -1°C° 0 mm 1 mps 745 mmHg 91%
    23:00 -1°C° 0 mm 1 mps 746 mmHg 91%

    29 October, Monday

    Time Temperature Precipitation Wind Pressure Humidity
    00:00 -1°C° 0 mm 1 mps 746 mmHg 91%
    01:00 -1°C° 0 mm 1 mps 746 mmHg 91%
    02:00 -1°C° 0 mm 1 mps 747 mmHg 91%
    03:00 -1°C° 0 mm 1 mps 747 mmHg 91%
    04:00 -2°C° 0 mm 0 mps 747 mmHg 91%
    05:00 -2°C° 0 mm 0 mps 747 mmHg 91%
    06:00 -2°C° 0 mm 0 mps 747 mmHg 89%
    07:00 -1°C° 0 mm 0 mps 747 mmHg 87%
    08:00 -1°C° 0 mm 0 mps 748 mmHg 86%
    09:00 0°C° 0 mm 0 mps 748 mmHg 81%
    10:00 +1°C° 0 mm 1 mps 748 mmHg 77%
    11:00 +2°C° 0 mm 1 mps 748 mmHg 73%
    12:00 +2°C° 0 mm 1 mps 748 mmHg 73%
    13:00 +2°C° 0 mm 1 mps 748 mmHg 74%
    14:00 +1°C° 0 mm 2 mps 748 mmHg 74%
    15:00 -1°C° 0.1 mm 2 mps 748 mmHg 78%
    16:00 -1°C° 0.1 mm 2 mps 748 mmHg 82%
    17:00 -1°C° 0.1 mm 2 mps 747 mmHg 85%
    18:00 -2°C° 0.4 mm 3 mps 747 mmHg 87%
    19:00 -2°C° 0.4 mm 3 mps 747 mmHg 89%
    20:00 -2°C° 0.4 mm 3 mps 747 mmHg 91%
    21:00 -3°C° 0.5 mm 4 mps 747 mmHg 91%
    22:00 -3°C° 0.5 mm 4 mps 747 mmHg 91%
    23:00 -4°C° 0.5 mm 5 mps 747 mmHg 90%

    30 October, Tuesday

    Time Temperature Precipitation Wind Pressure Humidity
    00:00 -4°C° 0.5 mm 5 mps 747 mmHg 90%
    01:00 -4°C° 0.5 mm 5 mps 747 mmHg 90%
    02:00 -4°C° 0.5 mm 6 mps 747 mmHg 89%
    03:00 -4°C° 0.7 mm 6 mps 746 mmHg 89%
    04:00 -4°C° 0.7 mm 6 mps 746 mmHg 89%
    05:00 -4°C° 0.7 mm 6 mps 746 mmHg 89%
    06:00 -4°C° 0.6 mm 6 mps 746 mmHg 89%
    07:00 -4°C° 0.6 mm 7 mps 746 mmHg 89%
    08:00 -4°C° 0.6 mm 7 mps 746 mmHg 89%
    09:00 -4°C° 0.6 mm 7 mps 747 mmHg 89%
    10:00 -4°C° 0.6 mm 7 mps 747 mmHg 89%
    11:00 -4°C° 0.6 mm 6 mps 747 mmHg 89%
    12:00 -4°C° 0.4 mm 6 mps 748 mmHg 88%
    13:00 -4°C° 0.4 mm 6 mps 748 mmHg 88%
    14:00 -4°C° 0.4 mm 6 mps 748 mmHg 87%
    15:00 -4°C° 0.1 mm 6 mps 748 mmHg 87%
    16:00 -4°C° 0.1 mm 6 mps 749 mmHg 87%
    17:00 -4°C° 0.1 mm 6 mps 749 mmHg 87%
    18:00 -4°C° 0.1 mm 6 mps 749 mmHg 87%
    19:00 -4°C° 0.1 mm 6 mps 749 mmHg 87%
    20:00 -4°C° 0.1 mm 6 mps 750 mmHg 88%
    21:00 -4°C° 0 mm 5 mps 750 mmHg 88%
    22:00 -4°C° 0 mm 5 mps 750 mmHg 88%
    23:00 -4°C° 0 mm 5 mps 751 mmHg 88%
    Show more